Content
SEND FEEDBACK

Daily
Averages
Monthly
Summary
Japan

OSOWANO, JAPAN


Home > Asia > Japan
Elevation: 80 feet     Latitude: 36 38N     Longitude: 137 11E

WEATHER
 
SELECT A DAY
Number of Records: 125,625;   Date Range: 7/1/96 - 8/10/14
 
SHARE

PRINT THIS DATA

[ ← Previous Day ]
WEATHER ALMANAC - FEBRUARY 13, 2013
[ Next Day → ]
[ °C ]   °F
Weather ElementAverageHighLow
Temperature36.8 °F41 °F (1:00 pm)33.8 °F (6:41 am)
Dewpoint32.2 °F35.6 °F (1:00 pm)30.2 °F (6:34 am)
Humidity83.5 %93 % (7:21 am)75 % (10:00 am)
Barometer30.12 in30.24 in (7:00 pm)30.04 in (6:34 am)
Wind Speed8.6 mph18.4 mph (11:10 am)
Weather ElementAverage
Visibility4.3 mi
Wind DirectionSSW (187.1 °)

Weather ElementTotal
Precipitation---
Heating Degree Days27.6 (Base 65)
Averaged from 24 records on February 13, 2013
WEATHER CONDITIONS BREAKOUT
WIND DIRECTION BREAKOUT
WEATHER BY HOUR - FEBRUARY 13, 2013
[ °C ]   °F
Local TimeTemperatureDewpointHumidityBarometerVisibilityWind DirectionWind SpeedGust SpeedPrecipitationEventsConditions
6:34 AM35.6 °F30.2 °F81 %30.04 in1.0 miWSW (250°)9.2 mphRain-SnowLight Snow Showers
6:41 AM33.8 °F30.2 °F87 %30.04 in0.7 miWSW (250°)8.1 mphSnowLight Snow Showers
7:00 AM33.8 °F30.2 °F87 %30.04 in1.2 miSouth (180°)6.9 mphSnowLight Snow Showers
7:17 AM33.8 °F30.2 °F87 %30.04 in2.2 miSouth (190°)6.9 mphSnowLight Snow Showers
7:21 AM33.8 °F32.0 °F93 %30.04 in4.3 miSSW (210°)8.1 mphSnowLight Snow Showers
8:00 AM35.6 °F30.2 °F81 %30.04 in5.0 miSSW (200°)8.1 mphMostly Cloudy
9:00 AM35.6 °F30.2 °F81 %30.06 in3.7 miSouth (170°)4.6 mphSnowLight Snow Showers
9:24 AM35.6 °F30.2 °F81 %30.09 in3.1 miSW (230°)11.5 mphSnowLight Snow Showers
10:00 AM37.4 °F30.2 °F75 %30.09 in3.1 miSW (220°)15.0 mphSnowLight Snow Showers
11:00 AM37.4 °F30.2 °F75 %30.06 in2.2 miSW (230°)17.3 mphSnowLight Snow Showers
11:10 AM37.4 °F30.2 °F75 %30.06 in3.7 miSW (230°)18.4 mphRain-SnowLight Snow Showers
11:43 AM37.4 °F32.0 °F81 %30.09 in2.2 miSW (230°)17.3 mphRain-SnowLight Snow Showers
12:00 PM37.4 °F33.8 °F87 %30.09 in5.0 miWSW (240°)16.1 mphRain-SnowLight Snow Showers
1:00 PM41.0 °F35.6 °F81 %30.09 in6.2 miWSW (250°)12.7 mphRainLight Rain Showers
2:00 PM41.0 °F33.8 °F76 %30.12 in6.2 miSW (230°)8.1 mphMostly Cloudy
3:00 PM39.2 °F33.8 °F81 %30.15 in6.2 miWest (280°)6.9 mphRainLight Rain Showers
4:00 PM39.2 °F33.8 °F81 %30.18 in6.2 miNW (310°)5.8 mphRainLight Rain Showers
5:00 PM39.2 °F33.8 °F81 %30.18 in6.2 miSouth (190°)4.6 mphMostly Cloudy
6:00 PM37.4 °F33.8 °F87 %30.21 in6.2 miESE (110°)4.6 mphRainLight Rain Showers
6:40 PM37.4 °F33.8 °F87 %30.21 in5.0 miVariable2.3 mphRainRain Showers
7:00 PM37.4 °F33.8 °F87 %30.24 in5.0 miVariable1.2 mphRainRain Showers
7:39 PM35.6 °F33.8 °F93 %30.24 in6.2 miESE (110°)4.6 mphRainLight Rain Showers
8:00 PM35.6 °F33.8 °F93 %30.24 in6.2 miVariable2.3 mphMostly Cloudy
9:00 PM35.6 °F32.0 °F87 %30.24 in6.2 miSouth (180°)5.8 mphMostly Cloudy
Hourly data recorded from RJNT, located miles away from Osowano, Japan







STORIES FROM OUR PARTNERS